Change the Weather History Date:

Monday, March 5, 2012

  Actual Average (KAND) Record (KAND)
Temperature  
Mean Temperature 48 °F -  
Max Temperature 59 °F 62 °F 82 °F (1955)
Min Temperature 33 °F 41 °F 20 °F (1978)
Degree Days  
Heating Degree Days 18    
Moisture  
Dew Point 21 °F    
Average Humidity 37    
Maximum Humidity 66    
Minimum Humidity 16    
Precipitation  
Precipitation 0.00 in - - ()
Sea Level Pressure  
Sea Level Pressure 30.21 in    
Wind  
Wind Speed 10 mph (West)    
Max Wind Speed 21 mph    
Max Gust Speed 32 mph    
Visibility 10 miles    
Events      
Averages and records for this station are not official NWS values.
T = Trace of Precipitation, MM = Missing Value Source: NWS Daily Summary

Daily Weather History Graph

Daily Weather History Graph

Search for Another Location

Airport or City:

Trip Planner

Search our weather history database for the weather conditions in past years. The results will help you decide how hot, cold, wet, or windy it might be!

Date:

Astronomy

Mar. 05, 2012 Rise Set
Actual Time 6:51 AM EST 6:28 PM EST
Civil Twilight 6:26 AM EST 6:53 PM EST
Nautical Twilight 5:57 AM EST 7:22 PM EST
Astronomical Twilight 5:28 AM EST 7:51 PM EST
Moon 3:51 PM EST (3/5) 4:43 AM EST (3/5)
Length of Visible Light 12h 27m
Length of Day
11h 36m
Waxing Gibbous, 91% of the Moon is Illuminated
Mar 5
Waxing Gibbous
Mar 8
Full
Mar 14
Last Quarter
Mar 22
New
Mar 30
First Quarter

Hourly Weather History & Observations

Time (EST) Temp. Windchill Dew Point Humidity Pressure Visibility Wind Dir Wind Speed Gust Speed Precip Events Conditions
12:56 AM 39.9 °F 35.1 °F 25.0 °F 55% 30.07 in 10.0 mi SSW 6.9 mph - N/A   Clear
1:56 AM 42.1 °F 35.2 °F 25.0 °F 51% 30.05 in 10.0 mi SSW 12.7 mph - N/A   Clear
2:56 AM 41.0 °F 33.9 °F 25.0 °F 53% 30.03 in 10.0 mi SSW 12.7 mph - N/A   Clear
3:56 AM 41.0 °F 34.3 °F 25.0 °F 53% 29.99 in 10.0 mi SSW 11.5 mph - N/A   Scattered Clouds
4:56 AM 45.0 °F 37.9 °F 25.0 °F 46% 29.97 in 10.0 mi SW 16.1 mph 24.2 mph N/A   Partly Cloudy
5:56 AM 45.0 °F 39.3 °F 26.1 °F 48% 30.00 in 10.0 mi SW 11.5 mph - N/A   Partly Cloudy
6:56 AM 46.9 °F - 27.0 °F 46% 30.01 in 10.0 mi SW 16.1 mph - N/A   Clear
7:56 AM 51.1 °F - 28.0 °F 41% 30.04 in 10.0 mi WSW 15.0 mph 25.3 mph N/A   Clear
8:56 AM 54.0 °F - 28.9 °F 38% 30.07 in 10.0 mi West 20.7 mph 32.2 mph N/A   Clear
9:56 AM 55.9 °F - 27.0 °F 33% 30.12 in 10.0 mi WNW 15.0 mph 24.2 mph N/A   Partly Cloudy
10:56 AM 55.9 °F - 19.9 °F 25% 30.18 in 10.0 mi WNW 9.2 mph 25.3 mph N/A   Clear
11:56 AM 55.9 °F - 16.0 °F 21% 30.22 in 10.0 mi NW 11.5 mph 24.2 mph N/A   Clear
12:56 PM 55.9 °F - 14.0 °F 19% 30.24 in 10.0 mi West 12.7 mph 28.8 mph N/A   Clear
1:56 PM 57.9 °F - 12.0 °F 16% 30.25 in 10.0 mi WNW 13.8 mph 21.9 mph N/A   Clear
2:56 PM 59.0 °F - 16.0 °F 19% 30.25 in 10.0 mi NNW 10.4 mph 16.1 mph N/A   Clear
3:56 PM 57.9 °F - 17.1 °F 20% 30.26 in 10.0 mi WNW 11.5 mph 18.4 mph N/A   Clear
4:56 PM 57.9 °F - 16.0 °F 19% 30.28 in 10.0 mi WNW 9.2 mph 17.3 mph N/A   Clear
5:56 PM 55.9 °F - 14.0 °F 19% 30.32 in 10.0 mi NNW 3.5 mph - N/A   Clear
6:56 PM 51.1 °F - 12.9 °F 22% 30.36 in 10.0 mi NNW 4.6 mph - N/A   Clear
7:56 PM 46.0 °F 43.9 °F 19.0 °F 34% 30.39 in 10.0 mi NNE 4.6 mph - N/A   Clear
8:56 PM 41.0 °F - 21.0 °F 45% 30.43 in 10.0 mi Calm Calm - N/A   Clear
9:56 PM 41.0 °F 39.0 °F 21.0 °F 45% 30.46 in 10.0 mi Variable 3.5 mph - N/A   Clear
10:56 PM 36.0 °F 33.3 °F 23.0 °F 59% 30.48 in 10.0 mi North 3.5 mph - N/A   Clear
11:56 PM 33.1 °F - 23.0 °F 66% 30.50 in 10.0 mi Calm Calm - N/A   Clear